This demonstration page uses our WeatherBlox Daily Observations layout. Learn more.

Left ArrowRight Arrow

Hourly Observations for August 7, 2015

Temp ( °F °C ) Dew Point ( °F °C ) Humidity (%) Winds ( mph kmh ) Pressure ( in mb ) Visibility ( mi km ) Precip ( " mm )
12:53 am 00:53 Clear 86 30 56 13.3 36 36 SSE 12 19 29.76 1008 10 16 0.00 0.00
1:53 am 01:53 Clear 83 28.3 58 14.4 43 43 SSE 10 17 29.75 1008 10 16 0.00 0.00
2:53 am 02:53 Clear 82 27.8 60 15.6 47 47 SSE 9 15 29.75 1007 10 16 0.00 0.00
3:53 am 03:53 Clear 79 26.1 61 16.1 54 54 SSE 7 11 29.75 1007 10 16 0.00 0.00
4:53 am 04:53 Clear 76 24.4 61 16.1 60 60 SE 8 13 29.75 1007 10 16 0.00 0.00
5:53 am 05:53 Clear 77 25 61 16.1 58 58 SE 6 9 29.76 1008 10 16 0.00 0.00
6:53 am 06:53 Clear 73 22.8 61 16.1 66 66 ESE 6 9 29.77 1008 10 16 0.00 0.00
7:53 am 07:53 Sunny 75 23.9 61 16.1 62 62 ESE 8 13 29.78 1008 10 16 0.00 0.00
8:53 am 08:53 Sunny 80 26.7 63 17.2 56 56 SE 14 22 29.78 1009 10 16 0.00 0.00
9:53 am 09:53 Sunny 85 29.4 63 17.2 48 48 SSE 14 22 29.79 1009 10 16 0.00 0.00
10:53 am 10:53 Sunny 88 31.1 63 17.2 43 43 SE 10 17 29.78 1009 10 16 0.00 0.00
11:53 am 11:53 Sunny 92 33.3 62 16.7 37 37 SE 6 9 29.78 1009 10 16 0.00 0.00
12:53 pm 12:53 Sunny 95 35 61 16.1 32 32 ESE 7 11 29.76 1008 10 16 0.00 0.00
1:53 pm 13:53 Sunny 98 36.7 58 14.4 26 26 S 9 15 29.74 1007 10 16 0.00 0.00
2:53 pm 14:53 Sunny 100 37.8 59 15 26 26 VRB 7 11 29.72 1007 10 16 0.00 0.00
3:53 pm 15:53 Mostly Sunny 103 39.4 55 12.8 20 20 SSW 9 15 29.69 1006 10 16 0.00 0.00
4:53 pm 16:53 Sunny 104 40 53 11.7 18 18 SSE 16 26 29.66 1004 10 16 0.00 0.00
5:53 pm 17:53 Sunny 104 40 52 11.1 18 18 Calm 29.63 1004 10 16 0.00 0.00
6:53 pm 18:53 Mostly Sunny 102 38.9 55 12.8 21 21 ESE 16 26 29.63 1003 10 16 0.00 0.00
7:53 pm 19:53 Sunny 99 37.2 58 14.4 26 26 SSE 18 30 29.63 1004 10 16 0.00 0.00
8:53 pm 20:53 Clear with Nearby Thunderstorms 97 36.1 58 14.4 27 27 SE 16 26 29.64 1004 10 16 0.00 0.00
9:11 pm 21:11 Clear 96 35.6 57 13.9 27 27 SSE 15 24 29.53 1000 10 16 0.00 0.00
9:53 pm 21:53 Clear 95 35 58 14.4 29 29 SSE 16 26 29.67 1005 10 16 0.00 0.03
10:53 pm 22:53 Clear 92 33.3 61 16.1 36 36 SSE 16 26 29.70 1006 10 16 0.00 0.00
11:53 pm 23:53 Clear 90 32.2 62 16.7 39 39 SSE 18 30 29.71 1006 10 16 0.00 0.00

Powered by AerisWeather